CDT,Max TemperatureF,Mean TemperatureF,Min TemperatureF,Max Dew PointF,MeanDew PointF,Min DewpointF,Max Humidity, Mean Humidity, Min Humidity, Max Sea Level PressureIn, Mean Sea Level PressureIn, Min Sea Level PressureIn, Max VisibilityMiles, Mean VisibilityMiles, Min VisibilityMiles, Max Wind SpeedMPH, Mean Wind SpeedMPH, Max Gust SpeedMPH,PrecipitationIn, CloudCover, Events, WindDirDegrees
2013-4-1,48,41,33,34,21,12,79,53,27,30.30,30.21,30.05,10,10,10,21,10,28,0.00,4,,11
2013-4-2,49,39,29,22,19,17,63,47,31,30.35,30.30,30.25,10,10,10,12,6,25,0.00,0,,73
2013-4-3,51,42,32,23,21,18,66,50,33,30.37,30.30,30.25,10,10,10,16,7,22,0.00,0,,69
2013-4-4,62,51,39,30,24,21,59,41,23,30.23,30.14,30.06,10,10,7,13,4,21,0.00,3,,11
2013-4-5,68,53,37,42,37,30,82,59,35,30.18,30.05,29.86,10,10,6,22,8,29,0.00,0,,195
2013-4-6,75,63,51,47,42,37,61,44,27,29.85,29.74,29.65,10,10,8,25,14,38,0.00,0,,223
2013-4-7,70,57,44,55,48,40,86,65,44,29.86,29.77,29.66,10,10,9,21,7,26,0.15,4,Rain-Thunderstorm,162
2013-4-8,71,63,54,61,57,54,100,84,68,29.73,29.70,29.66,10,8,2,18,10,25,0.11,7,Rain-Thunderstorm,187
2013-4-9,71,59,47,63,59,53,78,76,73,29.78,29.70,29.63,10,8,2,26,11,39,0.30,8,Rain-Thunderstorm,148
2013-4-10,48,41,34,52,41,34,100,95,89,29.93,29.82,29.72,10,6,1,32,11,40,0.94,8,Rain-Thunderstorm,320
2013-4-11,41,37,32,34,28,24,100,77,54,29.82,29.77,29.73,10,10,5,17,10,25,T,8,,277
2013-4-12,52,41,30,31,28,25,85,64,42,30.04,29.91,29.80,10,10,10,16,8,23,0.00,4,,287
2013-4-13,63,47,31,45,36,29,92,68,44,30.06,29.92,29.71,10,10,10,20,7,24,0.00,1,,137
2013-4-14,72,62,52,55,47,33,71,56,40,29.71,29.57,29.48,10,10,3,35,15,44,0.03,3,Rain-Thunderstorm,205
2013-4-15,55,49,43,41,36,30,82,62,41,30.00,29.85,29.74,10,10,5,18,8,23,0.20,8,Rain-Thunderstorm,8
2013-4-16,46,44,42,37,33,30,76,65,53,30.14,30.08,30.00,10,10,10,22,13,29,T,8,,51
2013-4-17,52,49,45,52,47,37,100,88,76,30.07,29.81,29.65,10,3,0,15,8,20,0.54,8,Fog-Rain-Thunderstorm,49
2013-4-18,46,41,35,47,36,25,100,80,59,29.95,29.71,29.57,10,7,2,22,14,33,0.29,8,Rain-Thunderstorm,319
2013-4-19,53,42,31,26,23,20,78,54,29,30.11,30.00,29.91,10,10,10,22,11,38,0.00,3,,305
2013-4-20,56,44,31,33,27,22,64,51,38,30.26,30.18,30.12,10,10,10,16,8,24,0.00,2,,99
2013-4-21,65,56,46,42,38,31,66,53,40,30.22,30.16,30.10,10,10,10,21,10,28,0.00,3,,167
2013-4-22,64,55,45,48,43,38,83,66,48,30.12,30.02,29.90,10,10,6,18,10,24,0.07,3,Rain,164
2013-4-23,45,39,33,43,32,30,96,86,76,30.20,30.09,30.01,10,6,2,25,15,32,0.52,8,Rain-Snow,355
2013-4-24,52,41,29,32,28,24,96,67,38,30.29,30.23,30.18,10,10,4,15,7,22,0.10,1,Snow,273
2013-4-25,70,53,36,39,35,31,79,55,30,30.32,30.24,30.14,10,10,10,16,6,22,0.00,0,,203
2013-4-26,54,51,47,48,46,38,86,70,54,30.23,30.19,30.16,10,8,2,26,10,32,0.45,8,Rain-Thunderstorm,149
2013-4-27,54,51,47,49,46,45,100,89,77,30.20,30.09,30.01,10,8,3,10,5,15,0.39,8,Rain,43
2013-4-28,72,57,41,55,48,39,100,75,49,30.01,29.92,29.80,10,7,0,15,7,21,0.00,0,Fog,205
2013-4-29,81,68,55,62,57,50,86,69,51,29.81,29.72,29.63,10,10,10,21,12,28,0.00,0,,186
2013-4-30,81,72,62,56,53,49,73,56,39,29.81,29.72,29.64,10,10,10,26,14,37,0.00,0,,196